• In Uzbekistan
  • List of Countries
  • For 7 days
  • Water Temperature
  • Satellite Maps
  • Weather Map
  • Weather Widgets
  • user-avatar
    Login

    Hourly Weather Salta

    Today, 21 November, Wednesday

    Time Temperature Precipitation Wind Pressure Humidity
    00:00 +21°C° 0 mm 1 mps 651 mmHg 83%
    01:00 +21°C° 0 mm 1 mps 651 mmHg 85%
    02:00 +20°C° 0 mm 1 mps 651 mmHg 86%
    03:00 +20°C° 0 mm 1 mps 650 mmHg 86%
    04:00 +20°C° 0 mm 1 mps 650 mmHg 86%
    05:00 +20°C° 0 mm 1 mps 650 mmHg 86%
    06:00 +21°C° 0 mm 1 mps 651 mmHg 78%
    07:00 +23°C° 0 mm 1 mps 651 mmHg 71%
    08:00 +24°C° 0 mm 2 mps 652 mmHg 64%
    09:00 +26°C° 0 mm 2 mps 652 mmHg 59%
    10:00 +28°C° 0 mm 3 mps 652 mmHg 54%
    11:00 +29°C° 0 mm 3 mps 652 mmHg 49%
    12:00 +30°C° 0 mm 3 mps 651 mmHg 49%
    13:00 +30°C° 0 mm 3 mps 651 mmHg 49%
    14:00 +31°C° 0 mm 3 mps 650 mmHg 49%
    15:00 +30°C° 0.4 mm 3 mps 649 mmHg 50%
    16:00 +30°C° 0.4 mm 4 mps 649 mmHg 52%
    17:00 +30°C° 0.4 mm 4 mps 648 mmHg 53%
    18:00 +28°C° 0.1 mm 3 mps 648 mmHg 59%
    19:00 +26°C° 0.1 mm 2 mps 648 mmHg 65%
    20:00 +25°C° 0.1 mm 2 mps 649 mmHg 71%
    21:00 +24°C° 0.1 mm 1 mps 649 mmHg 74%
    22:00 +24°C° 0.1 mm 1 mps 649 mmHg 76%
    23:00 +23°C° 0.1 mm 1 mps 650 mmHg 78%

    Tomorrow, 22 November, Thursday

    Time Temperature Precipitation Wind Pressure Humidity
    00:00 +23°C° 0 mm 1 mps 649 mmHg 79%
    01:00 +22°C° 0 mm 1 mps 649 mmHg 80%
    02:00 +20°C° 0 mm 0 mps 648 mmHg 81%
    03:00 +22°C° 0.1 mm 1 mps 648 mmHg 80%
    04:00 +22°C° 0.1 mm 1 mps 648 mmHg 78%
    05:00 +21°C° 0.1 mm 1 mps 648 mmHg 77%
    06:00 +23°C° 0 mm 1 mps 649 mmHg 70%
    07:00 +25°C° 0 mm 1 mps 649 mmHg 63%
    08:00 +26°C° 0 mm 1 mps 650 mmHg 56%
    09:00 +28°C° 0.1 mm 2 mps 650 mmHg 51%
    10:00 +30°C° 0.1 mm 2 mps 651 mmHg 47%
    11:00 +31°C° 0.1 mm 3 mps 651 mmHg 42%
    12:00 +33°C° 0.2 mm 3 mps 651 mmHg 40%
    13:00 +34°C° 0.2 mm 3 mps 650 mmHg 38%
    14:00 +35°C° 0.2 mm 3 mps 650 mmHg 36%
    15:00 +34°C° 0.5 mm 3 mps 649 mmHg 40%
    16:00 +33°C° 0.5 mm 3 mps 649 mmHg 43%
    17:00 +32°C° 0.5 mm 4 mps 648 mmHg 47%
    18:00 +29°C° 0.6 mm 3 mps 648 mmHg 55%
    19:00 +27°C° 0.6 mm 2 mps 648 mmHg 63%
    20:00 +25°C° 0.6 mm 2 mps 648 mmHg 71%
    21:00 +24°C° 1.1 mm 2 mps 649 mmHg 75%
    22:00 +24°C° 1.1 mm 3 mps 650 mmHg 78%
    23:00 +22°C° 1.1 mm 4 mps 651 mmHg 82%

    Day after tomorrow, 23 November, Friday

    Time Temperature Precipitation Wind Pressure Humidity
    00:00 +22°C° 0.7 mm 3 mps 651 mmHg 82%
    01:00 +21°C° 0.7 mm 3 mps 650 mmHg 81%
    02:00 +21°C° 0.7 mm 3 mps 650 mmHg 81%
    03:00 +21°C° 0.3 mm 2 mps 650 mmHg 82%
    04:00 +20°C° 0.3 mm 2 mps 650 mmHg 83%
    05:00 +20°C° 0.3 mm 2 mps 650 mmHg 83%
    06:00 +21°C° 0 mm 2 mps 651 mmHg 77%
    07:00 +23°C° 0 mm 2 mps 652 mmHg 71%
    08:00 +24°C° 0 mm 2 mps 653 mmHg 64%
    09:00 +25°C° 0 mm 2 mps 653 mmHg 60%
    10:00 +27°C° 0 mm 3 mps 653 mmHg 55%
    11:00 +28°C° 0 mm 3 mps 653 mmHg 50%
    12:00 +28°C° 0.1 mm 4 mps 652 mmHg 51%
    13:00 +28°C° 0.1 mm 4 mps 651 mmHg 53%
    14:00 +28°C° 0.1 mm 4 mps 650 mmHg 54%
    15:00 +27°C° 0.1 mm 4 mps 650 mmHg 55%
    16:00 +27°C° 0.1 mm 4 mps 649 mmHg 57%
    17:00 +27°C° 0.1 mm 4 mps 649 mmHg 59%
    18:00 +25°C° 0.1 mm 3 mps 649 mmHg 66%
    19:00 +24°C° 0.1 mm 2 mps 649 mmHg 74%
    20:00 +21°C° 0.1 mm 2 mps 650 mmHg 81%
    21:00 +21°C° 0.1 mm 2 mps 650 mmHg 83%
    22:00 +21°C° 0.1 mm 2 mps 651 mmHg 85%
    23:00 +21°C° 0.1 mm 1 mps 651 mmHg 86%

    24 November, Saturday

    Time Temperature Precipitation Wind Pressure Humidity
    00:00 +21°C° 0 mm 1 mps 651 mmHg 87%
    01:00 +21°C° 0 mm 1 mps 650 mmHg 87%
    02:00 +20°C° 0 mm 1 mps 650 mmHg 88%
    03:00 +20°C° 0 mm 1 mps 650 mmHg 88%
    04:00 +20°C° 0 mm 1 mps 650 mmHg 88%
    05:00 +20°C° 0 mm 1 mps 650 mmHg 88%
    06:00 +21°C° 0 mm 1 mps 651 mmHg 81%
    07:00 +23°C° 0 mm 1 mps 652 mmHg 74%
    08:00 +24°C° 0 mm 1 mps 652 mmHg 66%
    09:00 +25°C° 0 mm 2 mps 652 mmHg 62%
    10:00 +26°C° 0 mm 2 mps 652 mmHg 58%
    11:00 +28°C° 0 mm 2 mps 652 mmHg 54%
    12:00 +28°C° 0.1 mm 3 mps 652 mmHg 53%
    13:00 +28°C° 0.1 mm 3 mps 651 mmHg 53%
    14:00 +28°C° 0.1 mm 3 mps 650 mmHg 53%
    15:00 +27°C° 0.1 mm 3 mps 649 mmHg 56%
    16:00 +26°C° 0.1 mm 2 mps 649 mmHg 60%
    17:00 +26°C° 0.1 mm 2 mps 648 mmHg 64%
    18:00 +25°C° 0.2 mm 2 mps 649 mmHg 70%
    19:00 +24°C° 0.2 mm 2 mps 649 mmHg 75%
    20:00 +23°C° 0.2 mm 1 mps 650 mmHg 81%
    21:00 +22°C° 0.3 mm 1 mps 650 mmHg 82%
    22:00 +22°C° 0.3 mm 1 mps 651 mmHg 83%
    23:00 +22°C° 0.3 mm 1 mps 651 mmHg 84%

    25 November, Sunday

    Time Temperature Precipitation Wind Pressure Humidity
    00:00 +22°C° 0.1 mm 1 mps 651 mmHg 85%
    01:00 +21°C° 0.1 mm 1 mps 650 mmHg 87%
    02:00 +21°C° 0.1 mm 1 mps 650 mmHg 88%
    03:00 +21°C° 0.1 mm 1 mps 650 mmHg 89%
    04:00 +21°C° 0.1 mm 1 mps 650 mmHg 90%
    05:00 +20°C° 0.1 mm 1 mps 650 mmHg 90%
    06:00 +21°C° 0 mm 1 mps 651 mmHg 85%
    07:00 +22°C° 0 mm 1 mps 651 mmHg 80%
    08:00 +23°C° 0 mm 1 mps 652 mmHg 76%
    09:00 +25°C° 0.1 mm 2 mps 652 mmHg 69%
    10:00 +27°C° 0.1 mm 2 mps 652 mmHg 63%
    11:00 +28°C° 0.1 mm 2 mps 652 mmHg 57%
    12:00 +28°C° 0.3 mm 3 mps 651 mmHg 56%
    13:00 +29°C° 0.3 mm 3 mps 651 mmHg 55%
    14:00 +29°C° 0.3 mm 3 mps 650 mmHg 54%
    15:00 +28°C° 0.8 mm 3 mps 650 mmHg 59%
    16:00 +27°C° 0.8 mm 3 mps 649 mmHg 64%
    17:00 +26°C° 0.8 mm 2 mps 648 mmHg 69%
    18:00 +25°C° 0.7 mm 2 mps 649 mmHg 75%
    19:00 +24°C° 0.7 mm 2 mps 649 mmHg 80%
    20:00 +22°C° 0.7 mm 1 mps 650 mmHg 85%
    21:00 +22°C° 0.4 mm 1 mps 650 mmHg 86%
    22:00 +22°C° 0.4 mm 1 mps 650 mmHg 86%
    23:00 +20°C° 0.4 mm 0 mps 651 mmHg 86%

    26 November, Monday

    Time Temperature Precipitation Wind Pressure Humidity
    00:00 +19°C° 0.2 mm 0 mps 650 mmHg 87%
    01:00 +21°C° 0.2 mm 1 mps 650 mmHg 88%
    02:00 +21°C° 0.2 mm 1 mps 649 mmHg 88%
    03:00 +21°C° 0.2 mm 1 mps 649 mmHg 89%
    04:00 +20°C° 0.2 mm 1 mps 649 mmHg 90%
    05:00 +20°C° 0.2 mm 1 mps 650 mmHg 90%
    06:00 +21°C° 0.2 mm 1 mps 650 mmHg 86%
    07:00 +22°C° 0.2 mm 1 mps 651 mmHg 83%
    08:00 +23°C° 0.2 mm 1 mps 651 mmHg 79%
    09:00 +24°C° 0.1 mm 2 mps 651 mmHg 71%
    10:00 +26°C° 0.1 mm 2 mps 651 mmHg 64%
    11:00 +28°C° 0.1 mm 3 mps 651 mmHg 57%
    12:00 +28°C° 0.1 mm 3 mps 650 mmHg 56%
    13:00 +29°C° 0.1 mm 3 mps 649 mmHg 55%
    14:00 +29°C° 0.1 mm 4 mps 649 mmHg 54%
    15:00 +28°C° 0.4 mm 4 mps 648 mmHg 57%
    16:00 +28°C° 0.4 mm 4 mps 648 mmHg 60%
    17:00 +27°C° 0.4 mm 4 mps 647 mmHg 64%
    18:00 +26°C° 0.7 mm 3 mps 648 mmHg 71%
    19:00 +24°C° 0.7 mm 2 mps 648 mmHg 78%
    20:00 +23°C° 0.7 mm 2 mps 649 mmHg 85%
    21:00 +22°C° 0.6 mm 1 mps 649 mmHg 85%
    22:00 +22°C° 0.6 mm 1 mps 649 mmHg 86%
    23:00 +22°C° 0.6 mm 1 mps 650 mmHg 86%
    Show more